Location: *
(46.1006°N, 1.8394°E)
Time: 19:09:24
(UTC+00:00)

MetOp-A - Pass Details

Date: 20 September 2019
Orbit: 820 x 821 km, 98.6° (Epoch: 23 October)

Event Time Altitude Azimuth Distance (km) Brightness Sun altitude
Exits shadow 20:36:53 49° 211° (SSW) 1,053 4.6 -27.3°
Maximum altitude 20:38:02 60° 259° (WSW) 936 4.5 -27.4°
Drops below altitude 10° 20:43:21 10° 339° (NNW) 2,428 7.3 -28.2°
Sets 20:45:45 0° 343° (NNW) 3,365 8.1 -28.5°
